Regional Weather Roundup
Issued by NWS

Home | Current Version | Previous Version | Text Only | Print | Product List | Glossary Off
Versions: 1 2 3 4 5 6 7 8 9 10 11 12 13 14 15 16 17 18 19 20 21 22 23 24 25 26 27 28 29 30 31 32 33 34 35 36 37 38 39 40 41 42 43 44 45 46 47 48 49 50

000
ASUS43 KLOT 240304
RWRIL

ILLINOIS REGIONAL WEATHER ROUNDUP
NATIONAL WEATHER SERVICE CHICAGO/ROMEOVILLE IL
1000 PM CDT MON OCT 23 2017

NOTE: "FAIR" INDICATES FEW OR NO CLOUDS BELOW 12,000 FEET WITH NO
SIGNIFICANT WEATHER AND/OR OBSTRUCTIONS TO VISIBILITY.

* THESE STATIONS ARE NOT UNDER NWS QUALITY CONTROL. THEY ALSO MAY NOT
  REPORT WEATHER SUCH AS PRECIPITATION OR FOG.

ILZ001-002-007-009-015-016-024-240400-
NORTHWEST ILLINOIS

CITY           SKY/WX    TMP DP  RH WIND       PRES   REMARKS
MOLINE         PTCLDY    51  40  65 NW18G28   29.76R
STERLING*      CLOUDY    52  42  69 W17         N/A
SAVANNA*       CLOUDY    51  40  67 W15G22    29.72F
$$

ILZ003-004-008-010-011-017-018-240400-
NORTH CENTRAL ILLINOIS

CITY           SKY/WX    TMP DP  RH WIND       PRES   REMARKS
ROCKFORD       LGT RAIN  50  47  89 NW9       29.69S
FREEPORT*      CLOUDY    50  43  77 W10       29.70F
ROCHELLE*      LGT RAIN  49  47  94 W8        29.69S
DE KALB*       LGT RAIN  49  47  93 W14G20    29.67S
PERU*          CLOUDY    50  46  87 W14       29.71F
$$

ILZ005-006-012>014-019>023-240400-
NORTHEAST ILLINOIS

CITY           SKY/WX    TMP DP  RH WIND       PRES   REMARKS
CHICAGO-OHARE  CLOUDY    52  46  80 W8        29.62F
CHICAGO-MIDWAY CLOUDY    53  48  83 W10       29.62F
AURORA         LGT RAIN  51  48  89 W12       29.67S
LANSING*       CLOUDY    51  48  91 W8        29.64F
JOLIET*        LGT RAIN  53  51  92 W6        29.67S
WAUKEGAN       CLOUDY    52  46  80 W6        29.58F
DUPAGE AIRPORT LGT RAIN  51  48  89 W12       29.64S
KANKAKEE*      LGT RAIN  51  49  92 W13       29.69S
WHEELING       CLOUDY    53  48  83 W7        29.62F
MORRIS*        RAIN      51  49  91 W14       29.67S
NORTHERLY ISL    N/A     53  46  77 W3          N/A
$$

LMZ740>746-240400-
SOUTHERN LAKE MICHIGAN

STATION/POSITION SKY/WX   TEMP    WIND        PRES    VSBY  WAVE
                          AIR SEA DIR/SP/G                  HT/PER
                          (F)     (DEG/KT/KT) (MB)    (MI)  (FT/S)
SOUTHERN BUOY              55 60  320/ 14/ 16 1002.5          3/ 5
WILMETTE HARBOR            53 57  250/ 12/ 16   N/A           2/ 5
HARRISON CRIB              55     260/ 15/ 18   N/A
BURNHAM HARBOR             53     230/  9       N/A
CALUMET HARBOR             52     210/  4/  8 1002.8F
BURNS HARBOR               52     210/ 10/ 13 1003.7F
MICHIGAN CITY              52     210/ 12/ 14   N/A
MICHIGAN CITY 6N           53 57  240/ 14/ 19   N/A           4/ 6
ST. JOSEPH                 56 58  290/ 14/ 17 1002.6F         5/ 5
$$

ILZ025>027-034>036-040-047-049-050-058-095>099-240400-
WEST-CENTRAL ILLINOIS

CITY           SKY/WX    TMP DP  RH WIND       PRES   REMARKS
QUINCY         MOCLDY    53  38  56 NW16      29.85R
MACOMB*        CLOUDY    51  40  66 NW21G26   29.83R
JACKSONVILLE*  CLOUDY    52  44  73 W10       29.82S
PITTSFIELD*    CLOUDY    56  40  56 W9G16     29.85S
$$

ILZ028>032-037-038-041>044-048-051>054-059>061-240400-
CENTRAL ILLINOIS

CITY           SKY/WX    TMP DP  RH WIND       PRES   REMARKS
PONTIAC        LGT RAIN  51  51  98 W8        29.72F
BLOOMINGTON    LGT RAIN  50  47  89 W15       29.75F
DECATUR        CLOUDY    50  49  96 NW9       29.78S
PEORIA         CLOUDY    52  48  86 W9        29.76S
LINCOLN*       CLOUDY    50  49  97 CALM      29.76F
SPRINGFIELD    MOCLDY    52  49  89 W9        29.80S
TAYLORVILLE    CLOUDY    49  47  92 W6        29.80S
$$

ILZ033-039-045-046-055>057-062-063-240400-
EAST-CENTRAL ILLINOIS

CITY           SKY/WX    TMP DP  RH WIND       PRES   REMARKS
DANVILLE*      RAIN      50  49  95 SW10      29.69F
RANTOUL*       LGT RAIN  53  51  94 W16G24    29.73S
MATTOON        LGT RAIN  50  50 100 NW13      29.76R
PARIS*         RAIN      51  49  95 SW12      29.75S
$$

ILZ079-100>102-240400-
SOUTHWEST ILLINOIS

CITY           SKY/WX    TMP DP  RH WIND       PRES   REMARKS
ALTON          MOCLDY    52  46  82 W12       29.85S
BELLEVILLE     PTCLDY    52  47  82 SW3       29.83F
CAHOKIA*       LGT RAIN  56  47  71 SW6       29.85S
SPARTA*        CLOUDY    52  49  89 CALM      29.88F
$$

ILZ064>066-069>071-074>076-080>082-084>086-088>090-092>094-240400-
SOUTH-CENTRAL ILLINOIS

CITY           SKY/WX    TMP DP  RH WIND       PRES   REMARKS
CARBONDALE     CLOUDY    56  47  71 NW10G24   29.86R
CAIRO*         CLOUDY    60  47  62 NW5       29.86R
EFFINGHAM*     LGT RAIN  52  49  90 W6        29.81F
MARION         CLOUDY    58  47  68 NW9       29.88R
MT. VERNON     CLOUDY    54  48  80 W3        29.85R
CENTRALIA*     CLOUDY    53  51  92 SW8       29.83S
SALEM*         CLOUDY    54  49  85 W3        29.83S
METROPOLIS*    LGT RAIN  60  48  65 NW7G17    29.85R
$$

ILZ067-068-072-073-078-083-087-091-240400-
SOUTHEAST ILLINOIS

CITY           SKY/WX    TMP DP  RH WIND       PRES   REMARKS
LAWRENCEVILLE  LGT RAIN  53 N/A N/A SW9       29.79S
FLORA*         DRIZZLE   56  48  76 W10       29.82S
FAIRFIELD*     CLOUDY    54  48  82 NW6       29.82R
HARRISBURG*    CLOUDY    55  50  83 N13       29.84R
ROBINSON*      LGT RAIN  51  49  91 W13       29.79S
CARMI*         RAIN      53  49  86 SW13      29.82R
$$

ABBREVIATIONS USED IN REMARKS
   TC - TEMPERATURE IN CELSIUS
  WCI - WIND CHILL INDEX
   HX - HEAT INDEX
  VSB - VISIBILITY
$$




USA.gov is the U.S. government's official web portal to all federal, state and local government web resources and services.